| time (UTC) | temp F | wind direction | speed knots | gust knots | rain 1hr in | rain 24hr in | rain mn in | humidity % | barometer mb |
| 20260510071517 | 30 | 312 | 0.0 | 1.7 | 0.00 | 0.00 | 0.00 | 88 | 1012.3 |
| 20260510070021 | 30 | 312 | 0.0 | 1.7 | 0.00 | 0.00 | 0.00 | 86 | 1012.4 |
| 20260510064529 | 31 | 312 | 0.9 | 1.7 | 0.00 | 0.00 | 0.00 | 85 | 1012.3 |
| 20260510063026 | 32 | 312 | 0.0 | 1.7 | 0.00 | 0.00 | 0.00 | 85 | 1012.3 |
| 20260510061512 | 33 | 312 | 0.0 | 1.7 | 0.00 | 0.00 | 0.00 | 84 | 1012.4 |
| 20260510060019 | 34 | 312 | 0.0 | 1.7 | 0.00 | 0.00 | 0.00 | 83 | 1012.3 |
| 20260510054524 | 35 | 312 | 0.9 | 2.6 | 0.00 | 0.00 | 0.00 | 82 | 1012.3 |
| 20260510053025 | 36 | 312 | 0.0 | 1.7 | 0.00 | 0.00 | 0.00 | 80 | 1012.3 |
| 20260510051528 | 37 | 312 | 0.0 | 3.5 | 0.00 | 0.00 | 0.00 | 78 | 1012.1 |
| 20260510050016 | 37 | 287 | 0.0 | 5.2 | 0.00 | 0.00 | 0.00 | 79 | 1012.0 |
| 20260510044529 | 37 | 307 | 0.9 | 7.0 | 0.00 | 0.00 | 0.00 | 79 | 1011.8 |
| 20260510043026 | 37 | 359 | 0.9 | 5.2 | 0.00 | 0.00 | 0.00 | 79 | 1011.7 |
| 20260510041529 | 37 | 271 | 0.0 | 2.6 | 0.00 | 0.00 | 0.00 | 78 | 1011.6 |
| 20260510040028 | 37 | 271 | 1.7 | 3.5 | 0.00 | 0.00 | 0.00 | 77 | 1011.5 |
| 20260510034516 | 38 | 34 | 0.9 | 4.3 | 0.00 | 0.00 | 0.00 | 76 | 1011.3 |
| 20260510033020 | 38 | 247 | 0.0 | 6.1 | 0.00 | 0.00 | 0.00 | 74 | 1011.2 |
| 20260510031525 | 39 | 297 | 0.9 | 7.8 | 0.00 | 0.00 | 0.00 | 73 | 1011.2 |
| 20260510030037 | 39 | 297 | 1.7 | 6.1 | 0.00 | 0.00 | 0.00 | 72 | 1011.1 |
| 20260510024531 | 39 | 287 | 0.9 | 7.0 | 0.00 | 0.00 | 0.00 | 73 | 1011.0 |
| 20260510023020 | 39 | 301 | 1.7 | 5.2 | 0.00 | 0.00 | 0.00 | 74 | 1011.0 |
| 20260510021503 | 39 | 285 | 0.9 | 6.1 | 0.00 | 0.00 | 0.00 | 74 | 1010.7 |
| 20260510020008 | 39 | 295 | 0.0 | 5.2 | 0.00 | 0.00 | 0.00 | 73 | 1010.4 |
| 20260510014511 | 40 | 259 | 2.6 | 6.1 | 0.00 | 0.00 | 0.00 | 71 | 1010.2 |
| 20260510013015 | 41 | 314 | 1.7 | 7.0 | 0.00 | 0.00 | 0.00 | 68 | 1009.9 |
| 20260510011520 | 42 | 343 | 2.6 | 13.9 | 0.00 | 0.00 | 0.00 | 65 | 1009.6 |
| 20260510010003 | 43 | 281 | 1.7 | 9.6 | 0.00 | 0.00 | 0.00 | 62 | 1009.5 |
| 20260510004508 | 44 | 271 | 3.5 | 9.6 | 0.00 | 0.00 | 0.00 | 60 | 1009.3 |
| 20260510003021 | 44 | 14 | 3.5 | 8.7 | 0.00 | 0.00 | 0.00 | 58 | 1009.1 |
| 20260510001517 | 46 | 1 | 4.3 | 17.4 | 0.00 | 0.00 | 0.00 | 51 | 1009.0 |
| 20260510000021 | 46 | 292 | 0.0 | 3.5 | 0.00 | 0.00 | 0.00 | 51 | 1008.1 |
| 20260509234507 | 46 | 344 | 1.7 | 7.0 | 0.00 | 0.00 | 0.00 | 49 | 1007.9 |
| 20260509233015 | 46 | 323 | 1.7 | 6.1 | 0.00 | 0.00 | 0.00 | 49 | 1007.9 |
| 20260509231512 | 46 | 25 | 2.6 | 9.6 | 0.00 | 0.00 | 0.00 | 52 | 1008.0 |
| 20260509230020 | 48 | 60 | 0.9 | 9.6 | 0.00 | 0.00 | 0.00 | 49 | 1007.9 |
| 20260509224524 | 47 | 245 | 2.6 | 7.8 | 0.00 | 0.00 | 0.00 | 48 | 1007.6 |
| 20260509223007 | 48 | 17 | 0.9 | 5.2 | 0.00 | 0.00 | 0.00 | 50 | 1007.4 |
| 20260509221512 | 47 | 323 | 1.7 | 8.7 | 0.00 | 0.00 | 0.00 | 51 | 1007.1 |
| 20260509220017 | 46 | 311 | 1.7 | 6.1 | 0.00 | 0.00 | 0.00 | 60 | 1007.4 |
| 20260509214521 | 46 | 52 | 2.6 | 11.3 | 0.00 | 0.00 | 0.00 | 57 | 1007.6 |
| 20260509213026 | 47 | 29 | 3.5 | 9.6 | 0.00 | 0.00 | 0.00 | 50 | 1007.2 |
| 20260509211507 | 46 | 288 | 3.5 | 8.7 | 0.00 | 0.00 | 0.00 | 50 | 1007.0 |
| 20260509210014 | 47 | 288 | 3.5 | 11.3 | 0.00 | 0.00 | 0.00 | 50 | 1006.9 |
| 20260509204519 | 47 | 311 | 1.7 | 7.0 | 0.00 | 0.00 | 0.00 | 45 | 1006.6 |
| 20260509203025 | 48 | 41 | 3.5 | 12.2 | 0.00 | 0.00 | 0.00 | 42 | 1006.3 |
| 20260509201525 | 49 | 293 | 4.3 | 8.7 | 0.00 | 0.00 | 0.00 | 42 | 1006.0 |
| 20260509200008 | 48 | 271 | 4.3 | 12.2 | 0.00 | 0.00 | 0.00 | 42 | 1005.9 |
| 20260509194518 | 48 | 240 | 2.6 | 13.0 | 0.00 | 0.00 | 0.00 | 42 | 1005.8 |
| 20260509193025 | 48 | 290 | 3.5 | 11.3 | 0.00 | 0.00 | 0.00 | 41 | 1005.8 |
| 20260509191527 | 48 | 228 | 5.2 | 13.0 | 0.00 | 0.00 | 0.00 | 41 | 1005.2 |
| 20260509190028 | 48 | 360 | 1.7 | 11.3 | 0.00 | 0.00 | 0.00 | 40 | 1005.1 |
| 20260509184519 | 49 | 276 | 6.1 | 12.2 | 0.00 | 0.00 | 0.00 | 39 | 1004.8 |
| 20260509183020 | 48 | 245 | 3.5 | 16.5 | 0.00 | 0.00 | 0.00 | 44 | 1004.8 |
| 20260509181522 | 48 | 307 | 3.5 | 10.4 | 0.00 | 0.00 | 0.00 | 42 | 1004.5 |
| 20260509180027 | 50 | 14 | 3.5 | 12.2 | 0.00 | 0.00 | 0.00 | 43 | 1004.0 |
| 20260509174527 | 49 | 298 | 6.1 | 14.8 | 0.00 | 0.00 | 0.00 | 44 | 1004.1 |
| 20260509173015 | 49 | 303 | 5.2 | 9.6 | 0.00 | 0.00 | 0.00 | 48 | 1004.0 |
| 20260509171521 | 49 | 22 | 2.6 | 12.2 | 0.00 | 0.00 | 0.00 | 46 | 1003.6 |
| 20260509170026 | 48 | 290 | 4.3 | 11.3 | 0.00 | 0.00 | 0.00 | 50 | 1003.4 |
| 20260509164527 | 49 | 277 | 3.5 | 13.0 | 0.00 | 0.00 | 0.00 | 46 | 1003.2 |
| 20260509163013 | 50 | 329 | 5.2 | 12.2 | 0.00 | 0.00 | 0.00 | 45 | 1002.8 |
| 20260509161517 | 51 | 276 | 3.5 | 10.4 | 0.00 | 0.00 | 0.00 | 41 | 1002.4 |
| 20260509160024 | 51 | 340 | 4.3 | 11.3 | 0.00 | 0.00 | 0.00 | 41 | 1002.1 |
| 20260509154524 | 51 | 1 | 5.2 | 17.4 | 0.00 | 0.00 | 0.00 | 41 | 1002.1 |
| 20260509153027 | 51 | 305 | 4.3 | 15.6 | 0.00 | 0.00 | 0.00 | 42 | 1001.7 |
| 20260509151516 | 50 | 354 | 1.7 | 10.4 | 0.00 | 0.00 | 0.00 | 44 | 1001.4 |
| 20260509150020 | 51 | 49 | 2.6 | 12.2 | 0.00 | 0.00 | 0.00 | 40 | 1001.1 |
| 20260509144532 | 49 | 310 | 5.2 | 16.5 | 0.00 | 0.00 | 0.00 | 40 | 1000.9 |
| 20260509143009 | 50 | 236 | 4.3 | 10.4 | 0.00 | 0.00 | 0.00 | 43 | 1000.7 |
| 20260509141512 | 48 | 275 | 4.3 | 12.2 | 0.00 | 0.00 | 0.00 | 42 | 1000.4 |
| 20260509140019 | 48 | 4 | 0.9 | 7.0 | 0.00 | 0.00 | 0.00 | 44 | 1000.3 |
| 20260509134502 | 47 | 35 | 2.6 | 9.6 | 0.00 | 0.00 | 0.00 | 45 | 1000.1 |
| 20260509133006 | 45 | 236 | 0.9 | 6.1 | 0.00 | 0.00 | 0.00 | 48 | 999.9 |
| 20260509131507 | 45 | 8 | 2.6 | 6.1 | 0.00 | 0.00 | 0.00 | 48 | 1000.0 |
| 20260509130021 | 44 | 320 | 0.9 | 5.2 | 0.00 | 0.00 | 0.00 | 48 | 999.7 |
| 20260509124522 | 44 | 300 | 0.9 | 5.2 | 0.00 | 0.00 | 0.00 | 48 | 999.5 |
| 20260509123007 | 43 | 277 | 0.9 | 3.5 | 0.00 | 0.00 | 0.00 | 49 | 999.4 |
| 20260509121503 | 42 | 322 | 1.7 | 6.1 | 0.00 | 0.00 | 0.00 | 50 | 999.3 |
| 20260509120012 | 40 | 330 | 0.9 | 6.1 | 0.00 | 0.00 | 0.00 | 54 | 999.1 |
| 20260509114518 | 38 | 317 | 0.9 | 5.2 | 0.00 | 0.00 | 0.00 | 58 | 999.1 |
| 20260509113024 | 37 | 297 | 0.9 | 7.0 | 0.00 | 0.00 | 0.00 | 63 | 999.0 |
| 20260509111506 | 37 | 338 | 0.9 | 3.5 | 0.00 | 0.00 | 0.00 | 66 | 998.9 |
| 20260509110012 | 37 | 8 | 1.7 | 7.8 | 0.00 | 0.00 | 0.00 | 65 | 998.7 |
| 20260509104512 | 37 | 25 | 0.9 | 3.5 | 0.00 | 0.00 | 0.00 | 65 | 998.7 |
| 20260509103022 | 38 | 1 | 0.9 | 5.2 | 0.00 | 0.00 | 0.00 | 62 | 998.6 |
| 20260509101532 | 39 | 360 | 1.7 | 8.7 | 0.00 | 0.00 | 0.00 | 60 | 998.6 |
| 20260509100006 | 40 | 319 | 4.3 | 9.6 | 0.00 | 0.00 | 0.00 | 58 | 998.6 |
| 20260509094527 | 40 | 324 | 4.3 | 8.7 | 0.00 | 0.00 | 0.00 | 59 | 998.7 |
| 20260509093018 | 40 | 332 | 3.5 | 9.6 | 0.00 | 0.00 | 0.00 | 64 | 998.6 |
| 20260509091520 | 39 | 335 | 2.6 | 9.6 | 0.00 | 0.00 | 0.00 | 70 | 998.5 |
| 20260509090024 | 37 | 333 | 2.6 | 9.6 | 0.00 | 0.00 | 0.00 | 78 | 998.4 |
| 20260509084520 | 36 | 349 | 0.9 | 5.2 | 0.00 | 0.00 | 0.00 | 80 | 998.0 |
| 20260509083021 | 37 | 353 | 0.9 | 3.5 | 0.00 | 0.00 | 0.00 | 79 | 997.9 |
| 20260509081517 | 38 | 354 | 0.9 | 2.6 | 0.00 | 0.00 | 0.00 | 78 | 997.7 |
| 20260509080033 | 39 | 360 | 0.9 | 3.5 | 0.00 | 0.00 | 0.00 | 77 | 997.7 |
| 20260509074526 | 39 | 352 | 0.0 | 2.6 | 0.00 | 0.00 | 0.00 | 78 | 997.8 |
| 20260509073012 | 39 | 352 | 0.9 | 3.5 | 0.00 | 0.00 | 0.00 | 78 | 997.7 |